TimeCST,TemperatureF,Dew PointF,Humidity,Sea Level PressureIn,VisibilityMPH,Wind Direction,Wind SpeedMPH,Gust SpeedMPH,PrecipitationIn,Events,Conditions,WindDirDegrees,DateUTC
12:58 AM,21.0,18.1,89,30.41,10.0,Calm,Calm,-,N/A,,Clear,0,2013-11-28 06:58:00
1:58 AM,20.8,18.1,89,30.43,10.0,Calm,Calm,-,N/A,,Clear,0,2013-11-28 07:58:00
2:58 AM,19.2,16.3,89,30.43,10.0,Calm,Calm,-,N/A,,Clear,0,2013-11-28 08:58:00
3:58 AM,19.2,16.2,88,30.42,10.0,ENE,2.3,-,N/A,,Clear,70,2013-11-28 09:58:00
4:58 AM,19.8,17.1,89,30.42,10.0,Calm,Calm,-,N/A,,Clear,0,2013-11-28 10:58:00
5:58 AM,19.9,16.9,88,30.43,10.0,Calm,Calm,-,N/A,,Clear,0,2013-11-28 11:58:00
6:58 AM,20.7,17.6,88,30.44,10.0,NW,1.2,-,N/A,,Clear,320,2013-11-28 12:58:00
7:58 AM,27.5,21.7,79,30.45,10.0,North,-9999.0,-,N/A,,Clear,0,2013-11-28 13:58:00
8:58 AM,30.9,23.0,72,30.47,10.0,SSW,5.8,-,N/A,,Clear,200,2013-11-28 14:58:00
9:58 AM,36.0,23.2,60,30.48,10.0,SSW,10.4,-,N/A,,Clear,210,2013-11-28 15:58:00
10:58 AM,40.8,23.0,49,30.47,10.0,SSW,9.2,-,N/A,,Clear,200,2013-11-28 16:58:00
11:58 AM,41.4,21.7,46,30.45,10.0,SSW,5.8,-,N/A,,Clear,210,2013-11-28 17:58:00
12:58 PM,47.3,22.1,37,30.41,10.0,South,8.1,-,N/A,,Clear,190,2013-11-28 18:58:00
1:58 PM,48.7,23.4,37,30.40,10.0,South,5.8,-,N/A,,Clear,190,2013-11-28 19:58:00
2:58 PM,50.0,23.4,35,30.40,10.0,SSW,8.1,-,N/A,,Clear,210,2013-11-28 20:58:00
3:58 PM,51.1,23.7,34,30.41,10.0,SSW,5.8,-,N/A,,Clear,200,2013-11-28 21:58:00
4:58 PM,46.9,23.7,40,30.41,10.0,SSW,5.8,-,N/A,,Clear,200,2013-11-28 22:58:00
5:58 PM,44.1,24.4,46,30.42,10.0,South,5.8,-,N/A,,Clear,190,2013-11-28 23:58:00
6:58 PM,36.9,25.5,64,30.44,10.0,Calm,Calm,-,N/A,,Clear,0,2013-11-29 00:58:00
7:23 PM,32.0,24.8,75,30.43,2.0,Calm,Calm,-,N/A,,Haze,0,2013-11-29 01:23:00
7:28 PM,32.0,26.6,80,30.43,2.5,Calm,Calm,-,N/A,,Haze,0,2013-11-29 01:28:00
7:33 PM,32.0,26.6,80,30.43,6.0,Calm,Calm,-,N/A,,Haze,0,2013-11-29 01:33:00
7:58 PM,32.4,25.9,77,30.46,5.0,Calm,Calm,-,N/A,,Haze,0,2013-11-29 01:58:00
8:58 PM,30.2,25.5,83,30.47,2.5,Calm,Calm,-,N/A,,Haze,0,2013-11-29 02:58:00
9:03 PM,30.2,24.8,80,30.45,3.0,Calm,Calm,-,N/A,,Haze,0,2013-11-29 03:03:00
9:58 PM,29.1,25.3,86,30.48,6.0,Calm,Calm,-,N/A,,Clear,0,2013-11-29 03:58:00
10:58 PM,28.0,24.8,88,30.49,10.0,Calm,Calm,-,N/A,,Clear,0,2013-11-29 04:58:00
11:58 PM,27.3,24.3,88,30.49,10.0,Calm,Calm,-,N/A,,Clear,0,2013-11-29 05:58:00